[[{"header":{"parameterUnit":"m.s-1","parameterCategory":1,"la1":30.2991,"la2":30.254,"lo1":-89.0895,"lo2":-89.0444,"dx":0.0017,"dy":0.0017,"nx":28,"ny":28,"refTime":"2022-12-13T15:00:00:Z","depth":0,"parameterNumber":2,"parameterNumberName":"U-component_of_WINDS"},"data":[0,0,0,0,0,0,0,0,0,0,0,0,0,0,0,0,0,0,0,0,0,0,0,0,0,0,0,0,0,0,0,0,0,0,0,0,0,0,0,0,0,0,0,0,0,0,0,0,0,0,0,0,0,0,0,0,0,0,-1.4825,-1.4826,0,-1.4893,-1.4893,-1.4894,-1.4952,-1.4953,-1.4954,-1.4954,-1.502,-1.5021,-1.5022,0,0,0,0,0,0,0,0,0,0,0,0,0,-1.4743,-1.4744,-1.4825,-1.4826,-1.4827,-1.4893,-1.4893,-1.4894,-1.4952,-1.4953,-1.4954,-1.4954,-1.5019,-1.5021,-1.5022,0,0,0,0,0,0,0,0,0,0,0,0,0,-1.4791,-1.4745,-1.4825,-1.4864,-1.4868,-1.4892,-1.4894,-1.4895,-1.4952,-1.4953,-1.4954,-1.4955,-1.5019,-1.5021,-1.5022,-1.5013,0,0,-1.5028,-1.5028,0,0,0,0,0,0,0,0,-1.4788,-1.4794,-1.4857,-1.4861,-1.4866,-1.4915,-1.4889,-1.4934,-1.4952,-1.492,-1.4954,-1.4955,-1.4984,-1.4989,-1.4999,-1.5016,-1.5019,-1.5028,-1.5029,-1.5029,-1.503,0,0,0,0,0,0,0,-1.4785,-1.4792,-1.4852,-1.4858,-1.4863,-1.4876,-1.4884,-1.4897,-1.4945,-1.4923,-1.4927,-1.4934,-1.4986,-1.4997,-1.5001,-1.502,-1.5028,-1.5029,-1.503,-1.5031,-1.503,-1.5029,0,0,0,0,0,0,-1.4776,-1.4788,-1.485,-1.4854,-1.4829,-1.4877,-1.4886,-1.4898,-1.4946,-1.4954,-1.4934,-1.4937,-1.4994,-1.4999,-1.5003,-1.4994,-1.5029,-1.5031,-1.5032,-1.5031,-1.503,-1.5029,0,0,0,0,0,0,-1.4774,-1.4781,-1.4847,-1.4822,-1.4832,-1.4878,-1.4891,-1.4899,-1.491,-1.4954,-1.4962,-1.4936,-1.4995,-1.5001,-1.501,-1.4997,-1.5032,-1.5033,-1.5032,-1.5031,-1.5029,-1.4975,0,0,0,0,0,0,-1.4772,-1.478,-1.4778,-1.4822,-1.4833,-1.4853,-1.489,-1.49,-1.4913,-1.4918,-1.4958,-1.4966,-1.4996,-1.5007,-1.5012,-1.5,-1.5035,-1.5034,-1.5032,-1.503,-1.4978,-1.4972,-1.4966,0,0,0,0,0,-1.4768,-1.476,-1.4778,-1.4785,-1.4831,-1.4853,-1.4859,-1.4895,-1.4912,-1.4909,-1.4937,-1.4964,-1.4998,-1.5007,-1.5013,-1.5002,-1.5035,-1.5032,-1.503,-1.4981,-1.4973,-1.4967,0,0,0,0,0,0,-1.4712,-1.4766,-1.4787,-1.4792,-1.4817,-1.4862,-1.486,-1.4886,-1.4906,-1.4909,-1.4952,-1.4961,-1.4964,-1.4984,-1.4994,-1.4994,-1.502,-1.5018,-1.498,-1.4974,-1.4968,-1.4962,-1.5036,0,0,0,0,0,-1.4701,-1.4715,-1.4761,-1.4761,-1.4773,-1.4814,-1.4825,-1.485,-1.4878,-1.4888,-1.4917,-1.4941,-1.4957,-1.4967,-1.4984,-1.4982,-1.499,-1.4977,-1.4971,-1.4966,-1.4963,-1.4961,-1.4955,-1.5021,-1.5021,-1.5021,0,0,-1.4677,-1.4708,-1.4714,-1.475,-1.4773,-1.4785,-1.4823,-1.4834,-1.4842,-1.489,-1.4899,-1.4921,-1.4951,-1.4954,-1.4957,-1.4971,-1.4947,-1.4963,-1.4959,-1.4959,-1.4958,-1.4952,-1.4946,-1.502,-1.502,-1.502,0,0,-1.4638,-1.4664,-1.4666,-1.4688,-1.4722,-1.4749,-1.475,-1.4791,-1.4807,-1.4818,-1.4853,-1.4863,-1.4891,-1.491,-1.4923,-1.4891,-1.4916,-1.4895,-1.4864,-1.4861,-1.4856,-1.4852,-1.4838,-1.4832,-1.4893,-1.4893,-1.4893,0,-1.4603,-1.4624,-1.4664,-1.4673,-1.4687,-1.4731,-1.4732,-1.4751,-1.4788,-1.4796,-1.4812,-1.4846,-1.487,-1.4876,-1.4868,-1.4878,-1.4878,-1.489,-1.4854,-1.485,-1.4846,-1.4833,-1.4828,-1.489,-1.4891,-1.4891,-1.4891,0,-1.4578,-1.4591,-1.4589,-1.4624,-1.4638,-1.4643,-1.4682,-1.4692,-1.4716,-1.4741,-1.475,-1.478,-1.4803,-1.4807,-1.4831,-1.4816,-1.4824,-1.4846,-1.4873,-1.4836,-1.4825,-1.482,-1.4886,-1.4887,-1.4888,-1.4889,0,0,-1.4506,-1.4563,-1.4561,-1.4576,-1.4616,-1.4627,-1.4633,-1.4656,-1.4662,-1.4686,-1.4691,-1.4712,-1.4733,-1.4748,-1.4774,-1.4772,-1.4742,-1.4795,-1.4796,-1.4782,-1.4725,-1.4706,-1.47,-1.476,-1.4759,-1.4758,-1.4721,0,-1.4472,-1.4486,-1.4522,-1.4525,-1.4536,-1.4578,-1.4583,-1.4607,-1.4631,-1.4643,-1.4669,-1.4682,-1.471,-1.4719,-1.4719,-1.4745,-1.473,-1.4749,-1.4762,-1.4762,-1.4751,-1.4694,-1.4675,-1.4638,-1.4717,-1.4717,-1.4716,0,-1.4434,-1.4456,-1.4459,-1.4497,-1.4503,-1.4507,-1.453,-1.4542,-1.457,-1.4587,-1.4603,-1.4633,-1.464,-1.4666,-1.4674,-1.4686,-1.4694,-1.4707,-1.4707,-1.4707,-1.4735,-1.4691,-1.4628,-1.4621,-1.471,-1.4711,-1.4711,0,-1.4378,-1.4408,-1.4413,-1.4426,-1.4471,-1.4472,-1.4491,-1.452,-1.4531,-1.4551,-1.4558,-1.4578,-1.4589,-1.4603,-1.4636,-1.4653,-1.4641,-1.467,-1.4653,-1.4652,-1.4647,-1.4646,-1.4582,-1.4656,-1.4656,-1.4656,-1.4656,0,-1.4335,-1.4335,-1.4388,-1.4391,-1.4392,-1.4433,-1.4431,-1.4454,-1.4479,-1.4486,-1.4524,-1.4529,-1.4574,-1.4584,-1.461,-1.4612,-1.4617,-1.463,-1.4636,-1.4625,-1.4623,-1.4629,-1.4631,-1.4655,-1.4655,-1.4655,-1.4655,0,-1.4271,-1.4307,-1.4315,-1.4357,-1.4368,-1.4366,-1.4401,-1.4405,-1.4431,-1.4439,-1.4443,-1.4483,-1.4497,-1.4532,-1.4555,-1.4573,-1.4566,-1.458,-1.4557,-1.456,-1.454,-1.4541,-1.4475,-1.4468,-1.4549,-1.4548,-1.4547,0,-1.424,-1.4241,-1.4283,-1.4291,-1.4308,-1.432,-1.4331,-1.4371,-1.4381,-1.4412,-1.4411,-1.4428,-1.4444,-1.4463,-1.4494,-1.4511,-1.4524,-1.45,-1.4526,-1.4514,-1.452,-1.4518,-1.4517,-1.4493,-1.4492,-1.4491,-1.449,0,-1.4181,-1.4198,-1.4214,-1.4235,-1.4247,-1.4266,-1.4286,-1.429,-1.4335,-1.4344,-1.4359,-1.437,-1.4394,-1.4409,-1.4431,-1.4449,-1.4475,-1.4482,-1.4478,-1.4465,-1.4451,-1.4455,-1.4538,-1.4482,-1.4483,-1.4484,-1.4484,-1.4485,-1.4131,-1.4132,-1.4162,-1.4177,-1.4197,-1.4215,-1.4219,-1.4246,-1.4259,-1.4281,-1.4304,-1.4316,-1.4342,-1.4374,-1.439,-1.4398,-1.4413,-1.4408,-1.4407,-1.4404,-1.4398,-1.4451,-1.4403,-1.4403,-1.4403,-1.4404,-1.4404,0,-1.4071,-1.4092,-1.4105,-1.4133,-1.4144,-1.417,-1.4194,-1.4201,-1.4211,-1.4234,-1.4248,-1.4264,-1.4278,-1.431,-1.4327,-1.4328,-1.434,-1.4331,-1.433,-1.4333,-1.4385,-1.4386,-1.432,-1.432,-1.432,-1.432,-1.432,-1.432,-1.4041,-1.4044,-1.4065,-1.4078,-1.4099,-1.4111,-1.4121,-1.4137,-1.4155,-1.4171,-1.4184,-1.4205,-1.423,-1.4249,-1.4263,-1.4272,-1.4276,-1.4261,-1.4273,-1.4321,-1.4329,-1.4337,-1.4337,-1.4262,-1.4262,-1.422,-1.4219,-1.4219]},{"header":{"parameterUnit":"m.s-1","parameterCategory":1,"la1":30.2991,"la2":30.254,"lo1":-89.0895,"lo2":-89.0444,"dx":0.0017,"dy":0.0017,"nx":28,"ny":28,"refTime":"2022-12-13T15:00:00:Z","depth":0,"parameterNumber":3,"parameterNumberName":"V-component_of_WINDS"},"data":[0,0,0,0,0,0,0,0,0,0,0,0,0,0,0,0,0,0,0,0,0,0,0,0,0,0,0,0,0,0,0,0,0,0,0,0,0,0,0,0,0,0,0,0,0,0,0,0,0,0,0,0,0,0,0,0,0,0,4.0008,4.0008,0,4.0064,4.0065,4.0065,4.0051,4.005,4.0049,4.0048,4.0105,4.0107,4.011,0,0,0,0,0,0,0,0,0,0,0,0,0,3.9889,3.9891,4.0008,4.0008,4.0009,4.0064,4.0065,4.0065,4.0051,4.005,4.0049,4.0047,4.0104,4.0107,4.011,0,0,0,0,0,0,0,0,0,0,0,0,0,3.9943,3.9892,4.0008,4.0009,4.0009,4.0064,4.0065,4.0066,4.0052,4.005,4.0048,4.0047,4.0103,4.0107,4.0111,4.0167,0,0,4.0122,4.0124,0,0,0,0,0,0,0,0,3.994,3.9947,4.0008,4.0009,4.001,4.0049,4.0044,4.01,4.0052,4.0036,4.0048,4.0046,4.0088,4.0093,4.0107,4.017,4.0172,4.0123,4.0125,4.0127,4.0128,0,0,0,0,0,0,0,3.9936,3.9944,4.003,4.0009,4.001,4.0007,4.0013,4.0054,4.007,4.0037,4.0036,4.0043,4.0088,4.0103,4.0108,4.0173,4.0123,4.0126,4.0128,4.013,4.0288,4.029,0,0,0,0,0,0,3.9931,3.9941,4.0028,4.0032,3.997,4.001,4.0017,4.0038,4.007,4.0073,4.0044,4.0042,4.0097,4.0104,4.011,4.0181,4.0127,4.013,4.0132,4.0287,4.0289,4.0291,0,0,0,0,0,0,3.9929,3.9939,4.0026,3.9986,3.9997,4.0014,4.0038,4.004,4.0055,4.0075,4.0078,4.0057,4.0096,4.0105,4.0154,4.0182,4.0132,4.0135,4.0284,4.0287,4.029,4.0321,0,0,0,0,0,0,3.9926,3.9938,3.996,3.9987,3.9999,4.0069,4.004,4.0042,4.0062,4.006,4.0088,4.0091,4.0096,4.0148,4.0158,4.0187,4.0138,4.0282,4.0286,4.0289,4.0317,4.0324,4.033,0,0,0,0,0,3.9921,3.9966,3.9961,3.9972,4.0026,4.007,4.0077,4.0082,4.0064,4.0086,4.01,4.009,4.0177,4.0153,4.0164,4.0194,4.028,4.0285,4.0289,4.0314,4.0323,4.033,0,0,0,0,0,0,3.9941,3.9969,3.9964,4.0018,4.0042,4.0068,4.0096,4.0091,4.012,4.0116,4.012,4.0127,4.0178,4.0191,4.0163,4.0252,4.0226,4.0233,4.0242,4.025,4.0257,4.0253,4.0141,0,0,0,0,0,3.9951,3.9985,4.0007,4.0053,4.0065,4.0079,4.0098,4.0099,4.0124,4.0134,4.015,4.0175,4.0208,4.023,4.0261,4.0319,4.0326,4.0345,4.0352,4.0357,4.0363,4.0397,4.0407,4.0305,4.0305,4.0305,0,0,3.9974,3.9993,4.0014,4.0058,4.0076,4.0111,4.0087,4.0124,4.0151,4.0139,4.0188,4.0201,4.0228,4.0283,4.0308,4.0295,4.0393,4.0362,4.0366,4.037,4.0402,4.0412,4.0421,4.0308,4.0308,4.0307,0,0,4.0032,4.005,4.0091,4.011,4.0139,4.0148,4.0158,4.0185,4.0194,4.0242,4.0235,4.0266,4.0322,4.0343,4.0361,4.043,4.0423,4.044,4.0474,4.0508,4.0516,4.0523,4.0549,4.0559,4.0445,4.0446,4.0446,0,4.0057,4.0109,4.0113,4.0152,4.0172,4.0164,4.0207,4.0225,4.0263,4.0277,4.0263,4.0335,4.0352,4.0413,4.043,4.0444,4.0457,4.0437,4.0514,4.0521,4.0528,4.0554,4.0563,4.0448,4.0447,4.0447,4.0447,0,4.0138,4.0175,4.0205,4.0242,4.0266,4.0306,4.0317,4.034,4.034,4.0351,4.0401,4.0423,4.0459,4.0473,4.0473,4.0534,4.0526,4.0513,4.0487,4.054,4.0564,4.0573,4.045,4.045,4.0449,4.0449,0,0,4.0211,4.0251,4.0262,4.028,4.0312,4.0341,4.0381,4.0418,4.0439,4.0465,4.05,4.0549,4.0538,4.0558,4.056,4.0589,4.0645,4.0572,4.0573,4.0587,4.0717,4.0728,4.0739,4.064,4.0642,4.0643,4.0715,0,4.0275,4.0347,4.0352,4.0418,4.0453,4.0446,4.0482,4.0506,4.0517,4.0548,4.056,4.0596,4.0577,4.059,4.0618,4.0632,4.0671,4.0627,4.0674,4.0676,4.067,4.0751,4.0763,4.083,4.0724,4.0726,4.0727,0,4.0358,4.0389,4.0458,4.0487,4.0502,4.0534,4.0569,4.0598,4.0626,4.0632,4.0656,4.0654,4.0697,4.0669,4.0729,4.0699,4.0718,4.0729,4.0731,4.0737,4.0706,4.0762,4.0851,4.0862,4.0741,4.074,4.0739,0,4.0408,4.0465,4.0515,4.053,4.0564,4.0587,4.0603,4.0628,4.0651,4.0681,4.0696,4.073,4.075,4.0777,4.0786,4.0764,4.0846,4.0818,4.0854,4.0854,4.0873,4.0872,4.0969,4.0882,4.0882,4.0882,4.0882,0,4.0479,4.0522,4.0538,4.0568,4.0617,4.0623,4.0671,4.0685,4.0708,4.0742,4.0738,4.077,4.0778,4.0812,4.0818,4.0868,4.0877,4.0884,4.0885,4.0886,4.0885,4.09,4.0896,4.0885,4.0884,4.0884,4.0883,0,4.0543,4.0555,4.0609,4.0637,4.0645,4.068,4.0705,4.0735,4.0746,4.0789,4.0799,4.0816,4.0856,4.0867,4.0914,4.0919,4.0978,4.0974,4.097,4.097,4.1006,4.1004,4.1117,4.1134,4.1035,4.1036,4.1036,0,4.0589,4.0622,4.0655,4.0678,4.0694,4.073,4.0754,4.0761,4.0785,4.082,4.0846,4.0885,4.0917,4.0981,4.0998,4.1035,4.1033,4.1071,4.1039,4.1038,4.1037,4.1035,4.104,4.1077,4.1078,4.1079,4.108,0,4.067,4.0675,4.0708,4.0745,4.0773,4.0801,4.0829,4.0848,4.0859,4.0887,4.0928,4.0953,4.1002,4.1041,4.1079,4.1095,4.109,4.1089,4.11,4.1102,4.1098,4.1103,4.0988,4.1087,4.1086,4.1086,4.1085,4.1085,4.0728,4.0759,4.0787,4.0825,4.0847,4.0873,4.0903,4.0918,4.0953,4.0994,4.0996,4.1041,4.1069,4.1118,4.1137,4.1173,4.1162,4.1176,4.118,4.1185,4.1189,4.1091,4.1179,4.1179,4.1179,4.1178,4.1178,0,4.0812,4.083,4.0865,4.0904,4.0935,4.0927,4.0957,4.0984,4.1024,4.105,4.1082,4.113,4.1169,4.1189,4.1228,4.1253,4.1252,4.1263,4.1262,4.1267,4.1195,4.1183,4.1264,4.1264,4.1263,4.1263,4.1263,4.1263,4.0859,4.091,4.0918,4.0981,4.0999,4.1044,4.1062,4.1087,4.1108,4.1162,4.1195,4.1208,4.1232,4.1273,4.1309,4.1314,4.133,4.1343,4.1347,4.128,4.1271,4.1263,4.1252,4.1345,4.1345,4.1415,4.1416,4.1416]}]]